Wind_Speed
5 6 6 6 7 8 9 10 10 11 12 12 12 12 12 12 12 12 12 13 13 11 12 14 14 13 13 13 13 13 14 14 14 15 15 16 16 17 17 18 19 20 21 22 23 23 24 25 26 26 27 27 28 29 29 30 30 31 32 32 33 34 34 34 34 33 33 33 33 34 34 34 34 35 36 36 36 37 37 37 38 37 38 40 43 43 40
5 6 6 7 7 8 9 10 11 11 11 12 12 12 12 12 12 12 12 12 12 12 13 13 13 13 13 13 13 14 14 15 15 16 16 17 17 18 19 20 20 21 22 23 24 24 25 26 26 27 27 28 29 30 30 30 31 32 33 33 34 36 37 37 37 36 35 34 34 34 34 34 35 35 37 37 37 37 38 38 38 39 39 40 43 44 40
6 6 7 7 7 7 8 9 10 11 11 12 11 11 12 12 12 12 12 12 12 13 13 13 13 13 13 14 14 14 15 16 16 17 17 18 18 19 20 21 22 23 23 24 25 25 26 26 27 27 28 29 30 30 31 31 32 33 34 34 35 36 37 38 39 39 39 38 37 37 37 36 36 36 37 37 37 38 38 39 39 40 41 40 42 44 42
6 7 8 8 7 7 8 9 10 10 11 11 11 11 12 12 12 12 12 12 12 13 14 14 14 13 13 15 15 15 16 17 17 17 18 19 19 20 21 22 23 23 24 24 25 26 26 27 27 28 29 29 30 31 31 32 33 34 34 35 35 35 36 37 38 39 39 39 38 38 38 37 36 37 37 37 37 38 39 39 40 41 43 42 41 44 44
7 8 8 8 7 7 7 8 9 10 10 10 11 11 12 12 12 13 12 12 13 14 14 15 14 14 15 16 16 16 17 17 18 18 19 20 20 21 22 22 23 23 24 24 25 26 26 27 28 28 29 30 31 32 33 33 34 35 35 36 36 36 36 36 36 37 39 39 37 38 38 37 37 37 37 37 38 38 39 40 40 42 45 44 42 44 44
8 8 8 7 7 6 7 8 9 9 10 10 10 11 12 11 12 13 12 13 15 15 15 15 15 15 16 16 16 17 17 18 19 19 20 21 21 22 22 23 23 24 24 25 25 26 26 27 28 29 30 31 31 33 34 35 35 36 36 37 37 37 37 36 36 36 38 39 38 37 38 37 37 37 38 38 38 39 40 40 40 42 45 46 44 44 44
8 8 8 7 7 6 7 7 8 9 10 10 11 12 12 12 13 14 14 15 15 15 16 16 16 16 17 17 17 18 18 19 20 20 21 21 22 22 23 23 23 24 24 25 25 26 26 27 28 29 30 31 32 33 34 35 36 37 38 38 39 39 38 38 37 36 36 39 39 38 38 38 36 37 39 39 38 39 41 41 41 43 45 46 46 45 43
7 7 7 7 7 7 7 7 8 9 10 10 11 12 12 12 14 15 15 16 16 16 17 17 17 18 18 18 18 19 20 20 21 21 22 22 22 22 23 23 24 24 24 25 25 26 27 27 28 29 30 31 32 33 35 36 37 38 40 40 40 41 41 41 40 38 37 39 40 39 39 39 37 38 40 40 39 39 41 42 42 43 45 46 47 45 44
7 7 7 7 7 7 7 7 8 9 10 11 12 13 12 13 15 16 16 17 17 17 18 18 18 18 19 19 20 20 21 21 21 22 22 22 22 23 23 23 24 24 24 25 25 26 27 27 28 29 30 31 32 34 35 36 38 39 40 41 42 43 43 42 42 40 39 40 40 40 40 40 39 40 41 40 40 40 41 43 43 43 45 47 46 46 46
7 7 8 8 8 8 8 8 9 9 11 12 13 13 14 15 16 17 17 18 19 18 19 19 19 19 20 20 21 21 21 21 22 22 22 23 23 23 23 24 24 24 25 25 26 26 27 27 28 30 30 31 32 34 35 37 38 39 41 41 42 43 44 44 44 43 41 41 41 41 41 41 41 42 42 41 41 41 41 43 44 43 45 48 47 46 47
8 8 9 9 9 9 9 9 10 11 12 13 13 15 15 15 17 18 18 18 19 20 20 20 20 20 21 21 21 22 22 22 22 22 23 23 23 24 24 24 24 25 25 25 26 27 27 28 29 30 31 31 33 34 35 36 38 39 40 41 42 42 44 44 45 45 43 43 43 42 41 42 43 44 43 43 43 43 41 42 43 43 45 48 48 47 48
8 9 9 10 10 10 10 11 11 12 13 13 14 16 16 16 17 18 18 19 20 20 20 21 21 21 22 22 22 22 22 22 23 23 23 23 23 24 24 24 25 25 25 26 27 27 28 28 29 30 31 32 33 34 35 37 38 39 40 41 42 42 43 44 45 46 45 45 45 44 42 42 44 45 45 44 45 45 43 42 41 43 46 48 48 48 48
9 10 10 11 11 12 12 12 13 14 14 14 15 16 16 16 18 18 18 19 20 21 21 21 22 22 22 22 23 23 23 23 23 24 24 24 24 24 24 25 25 25 26 27 27 28 28 29 30 30 31 32 32 33 35 37 39 39 40 41 42 43 44 44 45 46 47 47 46 46 44 42 43 45 45 46 47 47 46 43 40 42 46 48 49 49 49
10 11 11 12 12 12 13 14 14 15 15 15 16 17 17 17 18 18 18 19 20 20 20 21 21 22 22 22 22 22 22 23 23 24 24 24 24 24 24 25 26 26 26 27 28 28 29 30 30 31 32 33 33 33 35 37 39 40 41 41 42 43 44 45 45 46 48 48 47 48 47 45 45 46 47 48 48 48 49 46 41 42 47 49 50 50 49
10 11 12 12 12 13 14 15 15 16 15 15 16 17 17 17 17 17 17 18 19 20 20 20 21 21 21 22 22 22 22 23 23 24 24 24 24 24 25 25 26 27 27 28 29 29 30 32 32 33 35 36 35 36 38 39 39 41 41 42 43 44 45 46 46 47 48 49 49 50 50 48 48 49 49 50 50 50 51 49 45 44 47 48 49 50 50
11 11 11 11 12 13 14 15 15 16 16 16 16 17 17 17 17 17 17 18 19 20 20 19 20 20 21 21 21 22 22 22 22 23 23 24 24 24 25 25 26 27 28 28 30 31 31 33 34 35 37 38 38 38 40 40 41 42 42 43 44 46 46 47 47 48 49 49 50 51 51 50 50 51 51 52 51 51 52 52 49 47 48 49 50 51 51
10 11 11 11 12 13 14 15 15 15 15 15 16 16 16 16 17 17 17 18 18 19 19 19 19 20 20 20 21 21 22 22 22 22 23 24 24 24 25 26 26 27 28 29 30 31 32 33 35 35 37 39 39 40 41 42 43 44 44 45 46 47 48 48 48 49 49 50 51 51 50 50 51 52 52 53 52 52 53 53 51 50 50 50 51 51 52
10 10 10 11 12 13 13 14 14 15 15 14 15 15 15 15 16 16 16 17 17 18 18 19 19 19 20 20 21 22 22 22 22 22 23 24 24 25 26 26 27 28 29 29 30 32 33 34 36 36 37 39 40 40 42 44 45 45 46 46 47 48 48 48 49 50 50 51 53 53 51 50 52 53 53 54 53 53 53 54 53 52 51 51 52 52 52
9 9 10 11 12 12 13 13 14 14 13 13 13 14 14 14 14 15 15 16 16 17 18 19 19 20 20 20 21 22 22 23 23 23 23 24 25 25 26 27 28 29 30 31 31 33 34 35 37 38 38 40 41 41 42 44 46 46 47 46 47 49 49 48 49 51 51 51 54 55 53 51 51 53 54 54 54 53 54 54 54 53 53 53 52 52 53
8 9 10 11 12 12 12 13 12 13 12 12 12 13 13 13 13 14 15 15 16 17 18 18 19 20 21 21 21 22 22 23 23 24 24 25 26 26 27 28 29 30 31 32 32 34 35 36 38 39 40 41 43 43 42 43 45 46 47 47 47 49 50 49 49 51 52 52 53 56 55 53 52 53 54 54 54 54 55 55 54 53 53 54 53 53 53
8 9 10 11 11 11 11 11 11 11 11 11 12 12 12 12 13 13 14 15 16 17 18 19 19 20 21 21 22 22 22 23 23 24 25 25 26 27 28 29 30 31 32 33 34 35 36 37 38 40 41 42 44 45 45 45 46 46 48 48 48 49 50 50 50 51 52 52 53 55 55 54 53 54 54 55 55 55 56 56 55 54 54 55 54 54 54
8 9 10 11 11 11 10 10 10 10 10 11 11 11 11 12 13 13 14 15 16 16 18 19 19 20 21 22 22 22 23 23 24 25 25 26 27 28 29 30 31 32 33 34 35 36 37 38 39 41 42 43 44 46 46 47 48 48 48 49 49 50 51 51 50 51 51 52 53 55 54 54 55 55 55 55 55 56 56 57 56 56 56 56 55 55 55
8 9 10 10 10 10 9 9 9 8 9 10 10 10 11 12 12 13 14 15 16 17 18 19 20 21 22 22 22 23 24 24 24 25 26 27 28 29 30 31 32 33 34 35 37 37 38 39 40 41 43 44 45 47 47 48 49 49 49 50 50 50 51 52 51 52 52 52 54 55 55 55 57 58 57 56 56 56 57 57 57 57 57 57 56 56 56
9 10 10 10 9 9 8 8 8 8 9 9 9 9 10 11 12 13 15 16 16 17 18 19 20 21 22 23 23 23 24 25 26 26 27 29 29 29 30 32 33 34 35 36 38 39 39 40 41 42 43 44 46 47 48 49 50 51 50 51 52 52 52 53 53 53 54 55 55 56 56 56 58 59 58 58 58 57 57 57 57 57 57 57 57 57 57
10 10 10 9 9 8 7 7 8 8 9 9 9 9 10 11 12 13 15 15 17 18 19 20 20 21 22 24 24 25 25 27 27 27 28 30 30 31 31 33 34 35 36 37 38 40 40 41 42 43 44 45 46 48 49 50 51 52 52 52 53 53 54 55 55 54 55 56 57 58 57 56 58 61 60 59 59 58 57 57 58 58 58 58 58 57 57
10 9 9 8 8 8 8 8 8 8 8 8 8 9 10 11 12 13 14 15 16 18 19 20 21 22 22 23 25 26 27 28 29 29 29 31 32 32 33 34 35 36 37 37 39 40 41 42 44 44 45 46 47 48 50 50 51 53 53 53 54 54 55 56 57 56 55 56 58 59 58 57 58 60 61 60 59 59 58 58 58 58 59 59 58 58 58
10 8 8 8 8 8 8 8 8 8 8 8 8 9 10 10 12 13 14 15 15 17 18 20 21 22 22 23 25 27 27 28 30 31 31 32 33 34 34 35 36 37 38 39 39 41 42 43 44 45 46 47 47 48 50 50 50 53 54 54 54 55 55 57 59 59 57 58 58 60 61 60 59 60 62 61 60 60 59 59 59 59 59 59 59 58 59
10 8 8 8 8 8 8 8 8 7 7 7 7 8 9 10 11 12 13 14 16 17 18 19 20 22 23 24 25 26 28 28 30 31 33 33 35 36 36 37 37 38 40 40 41 42 42 43 45 46 47 48 48 49 51 51 50 52 55 55 55 55 56 57 59 60 59 59 59 60 61 62 61 62 63 63 61 60 60 60 59 59 59 59 59 59 59
10 8 8 8 8 8 7 7 7 6 6 6 6 7 7 9 10 11 12 14 15 17 18 19 20 22 23 25 25 26 28 30 30 32 33 34 36 37 38 39 39 40 41 41 42 42 43 44 45 47 48 49 49 50 51 53 51 52 54 56 56 55 55 56 58 60 60 60 60 60 61 62 63 63 64 64 62 61 61 61 61 60 60 60 60 60 60
10 9 8 8 7 7 6 5 5 5 4 4 5 6 7 8 10 11 12 14 15 16 18 19 20 22 23 25 26 27 29 31 32 33 35 36 37 39 40 41 42 42 42 43 43 44 44 45 46 47 48 50 51 51 52 54 53 52 54 56 57 56 56 56 57 59 60 60 61 61 61 62 63 64 65 65 63 62 62 62 62 61 61 61 61 61 61
11 9 8 7 7 6 5 4 3 3 2 3 4 6 7 9 10 11 13 14 15 17 19 20 21 22 23 25 27 29 30 33 34 35 37 38 38 40 41 43 44 44 44 45 45 45 45 46 47 48 49 50 52 52 53 55 55 54 55 56 57 57 57 57 57 59 60 61 62 61 61 62 64 65 66 65 64 63 63 63 62 62 62 61 61 61 61
11 10 8 7 6 5 4 2 1 1 2 4 5 7 8 10 11 12 14 15 16 18 20 21 22 24 25 27 28 30 32 34 35 37 39 40 40 41 43 44 45 46 46 46 47 47 46 47 48 49 50 51 52 53 53 55 56 56 56 56 57 58 58 58 58 58 60 61 62 62 62 62 63 66 67 66 64 63 64 63 63 63 62 62 62 62 62
11 10 8 7 6 5 3 2 2 3 4 6 7 9 10 12 13 14 16 17 18 20 21 23 24 25 27 29 30 31 33 35 36 38 40 41 42 43 44 45 46 47 47 47 48 48 48 48 48 50 51 52 53 54 54 54 56 57 57 57 58 59 59 59 59 59 59 60 62 63 64 63 64 67 68 66 65 64 65 64 63 63 63 63 63 63 62
11 10 9 8 7 6 5 5 5 6 7 8 9 11 12 14 15 16 17 19 20 22 23 24 26 27 29 30 32 33 34 36 37 39 41 42 44 45 46 47 48 49 48 48 49 49 48 48 49 51 52 53 54 55 55 55 56 57 57 57 58 59 59 59 59 59 59 59 61 63 64 65 66 67 68 66 65 66 66 65 64 63 63 63 63 63 63
12 11 10 9 8 8 8 8 8 9 10 11 12 14 15 16 17 19 20 21 23 24 25 27 28 29 30 32 33 35 36 38 40 41 43 44 45 47 48 49 50 50 50 49 50 50 49 50 51 52 53 54 55 55 56 56 57 57 58 58 58 60 60 60 60 60 59 59 60 62 64 65 67 68 67 66 67 67 67 66 65 65 64 63 64 64 64
13 12 11 11 10 10 10 11 11 12 13 14 15 16 17 18 20 21 22 24 25 26 28 29 30 32 33 34 36 37 39 40 42 43 45 46 47 48 50 51 52 52 51 50 50 50 50 51 52 53 54 55 56 56 57 57 57 58 58 58 59 60 61 61 62 62 61 60 60 62 64 66 67 68 67 67 68 69 69 68 67 66 65 64 64 64 64
14 13 13 13 13 13 13 14 14 15 16 17 18 19 20 21 22 23 25 26 27 28 30 31 32 34 35 37 38 40 41 43 44 46 47 48 49 51 52 53 54 54 53 52 51 51 52 52 53 53 55 56 56 57 57 58 58 59 59 59 60 61 61 61 62 62 62 61 60 62 64 66 67 68 69 69 70 70 71 70 69 67 66 65 65 65 64
16 15 15 15 15 15 16 17 17 18 19 20 21 22 23 24 25 26 27 28 29 30 32 33 34 35 37 38 40 42 43 45 46 48 49 50 51 53 54 55 56 56 55 53 53 53 53 53 53 54 55 56 57 57 58 58 59 60 60 61 62 62 61 61 61 62 63 63 63 64 66 67 67 68 69 70 71 71 71 71 70 68 67 66 66 66 65
17 17 17 17 17 18 18 19 19 20 21 23 24 25 26 27 28 29 30 31 31 33 34 35 36 38 39 40 41 43 45 47 48 49 50 52 54 55 56 56 57 57 56 54 53 54 54 54 54 55 56 56 57 58 58 59 60 60 60 61 62 62 61 60 60 62 63 65 65 67 68 69 70 70 70 70 70 71 71 71 71 70 68 67 67 67 65
19 19 19 19 19 19 20 20 21 22 23 24 25 26 28 29 30 31 32 33 33 34 36 37 38 39 41 42 43 44 46 48 50 51 52 54 55 57 57 57 57 57 56 55 54 55 55 55 55 56 57 57 57 58 59 60 61 61 61 61 61 60 60 60 60 62 63 64 65 67 68 69 70 70 70 70 70 70 71 71 72 71 70 69 67 66 65
21 21 21 21 21 21 22 22 23 24 25 26 27 28 29 31 32 33 34 35 35 36 38 39 40 41 42 44 45 46 48 50 51 53 54 55 57 58 58 58 58 58 56 56 55 55 56 56 56 56 57 58 58 59 60 61 62 62 60 59 59 59 60 60 61 62 64 64 65 66 67 68 68 68 68 69 70 70 71 72 73 73 72 71 69 67 64
23 23 23 23 23 23 24 24 25 26 27 28 29 30 31 33 34 35 36 37 38 39 40 41 42 43 45 46 47 48 50 52 53 55 56 57 59 59 59 59 58 58 57 56 56 56 56 57 57 57 58 59 59 60 61 62 62 61 59 58 58 59 60 61 62 62 63 64 65 65 65 65 65 65 67 68 69 70 72 73 74 74 74 73 71 68 63
25 25 25 25 25 26 26 27 28 29 30 30 31 32 33 35 36 37 38 39 40 41 42 43 45 46 47 48 49 50 52 54 55 57 58 59 60 60 60 59 58 58 57 57 56 56 56 57 58 58 59 59 60 61 63 63 61 59 57 57 58 60 61 61 62 62 63 63 63 63 62 62 63 65 66 68 69 70 72 73 74 75 75 74 73 69 63
28 27 27 27 28 28 29 30 30 31 32 33 34 35 36 37 38 39 40 40 42 43 44 45 46 48 49 50 52 53 54 55 57 58 60 60 60 60 60 59 59 58 57 57 56 56 57 58 59 59 59 60 61 62 62 61 59 58 57 57 59 60 60 61 61 61 61 60 60 60 61 62 63 65 67 68 69 70 72 73 75 76 76 75 73 69 63
30 30 30 30 30 31 31 32 33 34 35 36 37 38 39 40 41 41 42 43 43 44 45 47 48 50 51 53 54 55 56 58 59 60 60 60 60 60 60 59 58 57 57 57 57 57 58 59 60 60 60 61 62 62 60 58 57 58 58 58 58 59 60 60 59 59 58 58 58 59 60 62 64 65 67 68 70 71 72 73 75 76 76 75 73 69 63
31 32 32 32 32 33 34 35 36 37 38 39 40 41 41 42 43 43 44 44 45 46 47 49 50 52 53 55 56 57 58 60 61 60 60 60 60 60 60 59 58 57 58 59 59 58 59 59 60 60 61 62 61 59 57 57 57 58 59 59 59 59 59 58 57 57 57 57 58 60 61 63 65 66 67 68 70 71 72 73 74 75 75 74 72 67 62
32 33 34 34 35 35 36 37 38 39 40 41 42 42 43 43 44 44 45 46 47 48 49 51 52 54 55 57 58 58 60 61 61 60 60 60 60 60 59 58 58 58 59 60 60 59 59 59 59 60 61 61 59 57 56 56 57 58 59 59 59 58 57 56 56 56 57 58 59 60 62 64 65 66 68 69 70 71 72 73 74 75 75 73 70 66 61
33 34 35 36 36 37 37 38 39 40 41 43 43 43 44 44 45 45 46 47 49 50 51 53 54 56 57 58 59 60 60 61 60 60 60 59 59 59 59 58 58 59 60 61 60 59 59 59 60 60 59 57 56 56 56 57 58 58 59 58 57 56 55 55 55 56 57 58 60 61 63 64 66 67 68 69 71 72 72 73 74 74 74 72 68 64 59
33 34 35 36 37 38 39 39 40 40 41 43 44 44 45 45 46 47 48 49 51 52 53 55 56 58 59 60 60 60 60 60 60 60 58 58 58 59 59 59 59 60 61 61 59 59 59 60 60 58 56 54 55 56 57 58 58 58 58 57 55 55 55 55 56 57 58 59 61 62 64 65 67 68 69 70 71 72 72 73 73 73 73 70 67 62 58
33 34 34 35 37 38 39 40 41 41 42 43 44 45 46 47 48 49 50 51 53 54 55 57 58 59 60 60 60 59 59 60 60 59 57 57 58 59 59 60 60 61 61 60 59 59 59 59 57 55 54 54 56 57 58 58 58 57 56 54 54 54 55 56 56 58 59 60 62 63 65 67 68 69 70 71 72 72 72 73 73 73 72 69 65 61 58
33 34 35 36 38 39 40 41 42 43 43 44 45 46 47 49 50 51 52 53 55 56 57 58 59 60 60 59 58 58 59 59 59 57 57 58 59 60 60 61 62 62 60 58 57 57 56 56 55 55 55 56 57 58 58 58 57 55 53 53 53 54 55 56 57 59 60 62 63 65 67 68 69 71 71 72 72 72 72 72 72 71 70 67 64 60 58
34 35 36 37 39 40 41 43 44 44 45 46 47 48 50 51 52 53 55 56 57 57 58 59 59 59 58 57 57 57 58 58 58 58 58 59 60 61 61 61 61 59 57 54 53 53 53 53 55 56 57 57 58 58 57 56 54 52 52 53 53 55 56 57 59 60 61 63 65 66 68 69 70 71 72 72 72 72 72 72 71 70 69 66 63 60 58
Wind_Direction
43 40 40 37 36 36 37 38 38 39 38 37 37 38 39 38 38 38 38 42 43 37 35 40 43 42 41 41 40 41 43 43 42 43 43 42 40 38 37 35 33 31 28 25 23 20 17 14 11 8 5 2 360 358 356 353 351 349 347 346 345 344 343 342 342 341 340 338 335 334 334 334 333 332 330 330 330 327 326 324 323 324 323 320 318 320 324
45 43 39 37 37 37 38 38 39 40 39 38 39 38 38 39 38 37 37 40 41 37 36 40 42 39 40 41 40 41 43 43 42 43 42 41 39 36 35 33 30 28 25 22 19 16 14 11 8 5 2 360 358 356 354 352 350 348 347 347 346 345 344 343 342 341 340 340 337 336 336 335 334 333 330 330 330 327 325 325 324 324 324 323 320 321 326
48 41 37 36 36 38 40 39 39 40 40 39 39 36 36 37 35 34 35 35 37 37 37 40 43 40 40 42 41 42 44 44 43 42 41 40 38 35 32 30 27 25 22 19 16 13 11 7 5 3 0 358 356 354 353 351 350 349 347 347 347 346 345 344 342 341 341 342 340 338 338 337 335 333 331 331 330 327 326 325 325 324 324 325 323 322 326
46 39 35 33 36 41 43 41 40 41 40 39 37 35 36 35 32 33 33 32 36 39 37 40 44 43 43 45 44 44 45 45 44 43 40 38 36 33 30 27 24 21 18 16 13 10 8 5 3 1 359 358 355 354 353 351 350 349 347 347 347 347 346 345 343 341 339 341 341 338 338 337 335 332 331 331 330 328 327 326 325 324 324 326 325 323 325
43 37 32 32 38 46 47 44 42 40 38 36 34 33 34 33 32 34 34 34 39 41 40 42 46 47 48 49 47 46 47 45 43 42 39 36 33 30 27 24 21 18 15 13 11 8 6 4 2 0 358 357 356 353 352 351 350 348 347 347 346 346 347 346 345 342 338 340 341 338 338 337 335 331 331 331 331 330 328 326 325 324 325 327 327 325 324
39 33 30 34 42 52 52 46 41 37 34 32 32 33 33 34 35 37 39 41 43 44 44 45 48 50 51 51 49 47 47 44 42 39 36 34 30 27 24 21 18 16 13 11 9 7 5 3 2 360 358 357 355 354 352 351 350 348 348 347 346 346 346 345 346 344 339 338 340 339 338 338 335 331 330 332 333 330 329 327 326 325 326 327 327 326 325
33 30 31 38 49 58 54 45 38 34 31 30 33 35 34 36 41 43 44 46 46 46 48 48 49 50 50 50 47 45 44 42 39 36 33 31 28 25 22 19 17 14 12 10 8 6 5 3 1 360 358 356 355 353 352 351 350 348 348 348 346 346 346 345 346 347 341 338 339 340 338 338 335 331 331 333 333 331 330 329 327 326 326 326 326 327 325
29 30 36 46 57 61 54 44 37 32 31 34 39 41 40 43 48 47 47 48 48 47 49 49 48 49 49 47 45 43 41 38 36 33 30 28 26 23 21 18 16 13 11 10 8 6 5 3 1 359 358 356 354 352 352 351 350 349 349 349 348 347 347 346 346 347 344 339 340 340 338 337 334 332 332 333 333 333 331 330 329 327 326 325 325 327 326
32 38 49 60 65 62 54 45 39 36 39 42 46 48 48 50 53 50 48 49 49 47 48 48 47 47 47 45 43 41 39 36 34 31 29 26 25 22 20 18 15 13 11 10 7 6 4 2 360 358 358 356 353 351 351 350 349 350 350 350 349 348 348 347 346 347 345 341 341 341 338 337 334 332 333 333 332 334 333 331 329 328 325 325 326 327 326
43 53 64 70 69 63 55 48 45 44 47 50 53 55 55 55 56 52 48 49 50 48 48 48 46 46 45 44 42 40 38 35 33 30 28 26 24 22 20 17 15 14 12 10 8 6 5 2 360 358 357 356 353 351 350 349 349 350 350 350 350 348 348 347 346 347 347 344 343 343 340 337 335 333 334 334 332 333 334 332 330 328 324 324 327 327 326
59 69 76 77 73 66 58 54 53 53 55 58 61 62 59 56 56 54 50 49 50 49 48 48 47 45 45 43 41 39 37 35 33 30 28 26 24 22 20 18 17 15 13 11 9 8 6 3 1 359 359 357 354 352 351 349 349 351 350 350 349 348 348 347 346 347 348 345 344 344 342 338 336 335 337 335 332 333 334 334 332 328 324 324 327 328 326
74 81 83 81 75 68 63 61 61 61 62 64 66 66 62 56 55 55 53 51 51 51 49 48 47 46 45 43 41 39 37 35 33 31 29 28 25 23 22 21 19 17 16 15 13 12 10 7 4 3 2 360 356 354 353 351 350 352 351 349 349 348 348 348 347 346 347 347 345 344 345 341 337 337 338 335 333 332 333 336 334 328 324 325 327 327 326
86 88 88 84 77 71 68 67 67 66 67 67 68 68 64 58 54 54 54 52 52 51 50 48 47 46 45 44 42 40 38 36 34 32 30 29 27 26 25 24 22 21 20 18 17 15 14 11 9 7 6 4 1 358 356 354 353 354 353 351 349 349 348 348 347 346 346 348 346 344 346 344 338 338 338 335 334 333 333 337 337 328 324 326 327 327 327
93 93 91 86 79 75 72 71 70 69 70 70 69 68 65 60 56 53 53 53 52 51 49 48 47 46 45 43 41 40 38 37 35 33 32 31 29 28 27 25 24 23 21 19 18 16 15 13 12 10 9 7 4 2 1 359 358 357 356 354 351 350 350 349 348 347 346 347 346 345 347 346 340 339 339 336 336 335 333 337 339 331 327 327 327 327 328
98 96 93 88 82 77 74 73 72 71 71 71 69 67 64 61 58 55 53 54 53 51 49 47 46 45 44 43 41 39 38 37 35 34 32 31 30 28 26 25 24 22 20 18 17 15 14 12 11 10 9 8 6 5 4 3 1 359 358 356 353 353 353 351 349 348 346 346 346 347 348 347 342 340 339 337 338 336 333 336 338 334 330 329 328 328 328
101 98 95 90 84 79 76 75 74 72 71 71 71 69 65 62 60 57 55 55 54 52 49 47 46 44 43 42 40 38 37 35 34 33 31 30 28 26 24 23 21 20 18 16 14 12 11 10 9 7 7 7 6 4 3 3 2 1 360 358 356 355 356 354 351 349 347 345 345 346 347 346 343 341 339 338 338 337 334 335 337 336 332 330 330 330 329
103 100 96 91 86 82 78 77 76 75 72 71 71 70 67 64 62 59 57 56 55 53 51 48 46 44 42 40 39 37 35 33 31 30 28 26 24 23 20 18 17 16 14 13 10 8 7 6 6 5 4 4 4 1 0 1 1 0 360 358 357 356 357 355 353 351 349 346 344 346 347 346 343 341 340 338 338 337 334 335 337 336 333 332 332 331 330
107 103 98 94 89 85 81 79 77 76 73 71 70 70 68 65 63 60 58 56 55 53 51 48 46 44 42 39 38 36 33 31 29 26 24 22 20 18 16 14 13 11 10 9 7 5 3 2 2 1 360 0 1 0 358 358 358 359 358 357 356 356 357 356 353 352 351 348 345 346 348 346 343 341 340 339 338 337 335 335 337 336 334 333 333 332 330
112 107 102 97 92 88 84 80 78 76 73 70 68 68 67 64 62 59 57 56 54 52 51 48 46 44 41 39 36 34 32 30 27 25 22 19 17 16 13 12 10 8 7 6 5 4 2 360 359 359 358 357 358 359 357 356 356 356 356 356 355 354 355 355 353 352 352 350 347 347 348 346 343 341 340 339 338 337 336 336 337 336 334 333 333 333 331
119 114 108 102 97 91 87 83 79 77 74 70 67 67 65 63 60 57 55 53 52 50 49 47 44 42 40 37 35 32 30 27 25 22 20 17 15 14 11 10 9 7 5 3 2 2 1 359 358 357 357 355 355 356 356 355 354 353 353 354 353 352 352 354 353 352 352 351 349 348 347 345 343 341 341 340 339 337 336 337 338 337 334 333 334 334 331
125 121 115 109 102 95 90 86 81 78 74 70 67 65 64 61 58 55 52 49 48 47 46 44 42 40 37 35 32 29 26 23 21 19 16 14 12 10 8 7 6 5 4 2 1 359 359 359 357 356 356 355 353 353 354 353 353 352 351 351 352 350 350 352 352 351 351 350 349 349 348 344 342 342 341 340 339 337 337 337 338 337 335 334 335 334 332
132 127 121 115 107 99 93 87 82 79 75 69 66 64 62 59 56 52 49 46 44 42 41 40 38 36 34 31 28 25 22 20 17 15 13 10 8 6 5 3 2 1 1 359 359 357 357 357 356 354 354 354 352 352 351 351 351 352 350 349 350 349 348 350 350 349 350 349 348 349 349 345 342 342 342 341 339 338 337 338 338 337 336 335 335 335 334
140 134 127 119 111 103 97 91 87 81 73 69 68 65 61 58 55 51 47 44 42 40 38 36 35 33 31 28 25 23 20 17 14 11 10 7 5 2 1 0 358 358 357 356 356 355 354 354 354 353 352 352 351 350 350 349 349 350 349 348 348 348 346 347 348 347 348 347 346 348 350 347 343 343 343 341 341 340 338 338 338 337 337 336 336 336 335
147 141 132 124 116 109 104 97 88 78 73 72 70 64 60 57 53 49 46 43 40 38 36 34 32 31 29 26 23 21 19 16 13 10 8 6 3 0 358 357 356 355 353 353 353 352 351 351 352 351 350 350 349 348 348 347 346 347 347 346 346 346 345 345 347 346 346 345 345 346 349 348 345 344 343 341 341 341 339 338 337 337 337 336 336 336 335
154 148 138 129 119 110 103 95 88 82 79 77 70 64 60 56 51 49 46 41 37 36 35 32 28 27 25 23 21 19 17 15 12 10 7 5 2 360 357 356 355 353 351 350 350 349 349 348 349 349 349 348 348 346 347 346 344 344 345 344 344 345 344 343 345 345 344 344 344 345 347 347 345 344 344 342 340 341 340 337 337 337 336 337 337 336 336
159 154 142 130 121 113 107 101 95 90 84 77 68 62 58 52 49 47 43 38 34 31 30 28 25 23 22 19 18 16 14 13 11 8 6 4 2 360 357 355 353 351 350 349 348 347 347 346 346 346 346 346 346 345 344 345 343 342 343 343 342 343 343 342 343 344 343 343 342 343 344 346 345 344 344 342 340 341 340 338 337 337 336 337 337 337 336
161 157 146 135 127 122 116 108 99 90 83 76 67 59 53 48 45 43 38 33 29 25 24 22 20 18 17 15 14 13 11 9 7 6 4 2 0 359 357 354 352 350 349 347 346 346 345 344 344 344 344 344 345 343 342 343 342 340 341 341 341 341 341 340 341 342 342 342 342 341 342 343 344 344 344 342 341 340 340 338 337 336 336 336 337 337 336
163 159 151 143 135 129 121 112 102 93 84 75 63 56 49 41 38 35 29 25 22 18 16 14 12 12 11 9 9 8 6 5 3 2 0 359 358 357 355 353 352 350 348 347 345 344 344 343 342 342 342 342 343 342 341 342 341 339 338 339 339 339 340 340 339 340 341 340 340 341 341 341 342 343 343 342 341 340 340 338 337 336 336 336 336 336 336
164 162 156 149 142 133 124 115 107 96 83 71 59 50 39 29 27 24 18 15 14 11 8 6 5 4 4 4 3 2 1 0 360 358 357 356 355 354 353 352 350 348 347 345 344 343 342 342 341 341 341 341 342 342 340 340 341 339 337 338 338 338 339 338 338 338 339 339 339 340 340 340 341 342 343 342 341 340 340 339 337 337 336 336 336 336 336
166 166 161 155 149 140 131 121 110 95 78 62 46 34 22 14 11 10 7 4 3 0 359 359 358 357 357 357 356 356 355 355 355 354 354 353 352 351 351 350 349 347 346 344 343 342 341 340 340 340 339 339 340 340 339 339 340 339 337 336 337 337 338 337 337 337 338 337 338 339 339 339 340 341 342 342 340 340 340 339 338 337 336 336 335 335 335
169 170 168 163 158 151 142 132 116 87 56 31 17 8 1 357 356 356 355 353 351 351 350 350 350 350 350 350 350 350 350 350 350 350 350 350 350 349 349 348 347 346 344 343 342 341 341 339 338 338 338 338 338 339 338 338 339 339 337 336 336 336 337 337 337 337 336 336 337 338 338 339 339 340 341 341 340 339 340 339 338 337 336 335 335 334 335
173 176 176 175 174 170 165 163 149 20 350 347 346 344 342 344 343 343 343 341 341 342 342 342 342 343 343 344 345 346 346 346 346 346 346 347 347 346 346 346 345 344 344 342 340 340 340 338 337 337 337 337 337 338 337 337 337 338 337 336 335 335 336 337 337 336 336 335 335 336 338 339 338 339 340 340 339 339 339 339 339 338 337 336 334 334 334
180 183 187 191 196 201 210 232 268 300 314 321 327 328 330 332 333 333 333 333 333 334 335 336 336 337 338 339 340 341 341 342 342 342 342 343 343 343 344 344 343 343 343 341 339 339 339 337 337 336 336 336 336 336 336 336 336 336 336 335 334 335 336 336 336 336 335 335 335 335 337 338 338 338 339 339 339 339 339 339 338 338 337 336 334 333 334
189 193 199 208 218 229 245 262 277 291 301 306 311 316 320 322 324 325 326 326 327 327 329 330 331 332 333 334 335 336 337 337 338 339 339 340 340 341 341 342 342 342 342 340 338 338 338 337 336 335 334 334 335 335 335 336 336 335 335 334 334 334 335 335 335 335 335 335 335 335 336 337 338 338 339 339 339 339 339 339 338 337 337 335 334 333 333
199 204 211 221 233 244 257 268 278 288 295 299 304 309 313 315 317 319 321 322 323 323 324 326 327 328 329 330 330 332 333 334 335 336 336 337 338 338 339 340 340 340 340 339 338 337 337 336 335 334 334 334 334 334 334 335 335 335 334 334 333 333 334 335 334 334 335 335 335 335 335 336 337 338 339 339 338 338 338 338 337 337 336 335 333 333 333
210 214 222 231 241 251 260 269 278 285 291 296 300 305 308 310 313 315 317 319 320 321 322 324 325 325 326 327 327 328 330 331 332 333 334 335 336 336 337 338 338 339 339 338 337 337 336 335 335 334 333 334 334 333 333 334 334 334 334 333 333 333 334 334 334 334 335 336 336 335 335 336 337 338 338 338 338 337 337 337 336 336 335 334 333 333 332
218 223 230 238 246 255 262 269 276 283 288 293 297 301 304 307 309 311 314 316 318 319 320 322 322 323 324 324 325 326 327 328 330 331 332 333 334 335 336 336 336 337 338 338 337 336 335 335 334 333 332 333 333 332 332 333 333 333 333 333 332 333 334 334 333 333 334 336 336 335 336 337 338 338 338 338 337 337 336 336 336 335 335 334 333 332 332
225 230 237 245 252 259 266 271 277 283 287 291 295 298 300 303 306 308 311 313 315 316 318 319 320 321 321 321 323 324 325 326 328 329 330 331 332 333 334 335 335 335 337 337 336 335 334 334 334 333 332 332 331 331 332 332 332 333 333 333 333 333 334 333 333 333 334 336 336 336 336 337 338 338 337 337 337 337 336 336 336 335 334 333 332 331 331
231 237 243 250 257 263 269 275 280 285 289 292 295 297 299 301 303 305 307 309 311 313 315 317 317 318 319 320 321 323 324 325 326 328 329 330 331 332 333 334 333 334 335 335 335 334 333 334 333 332 331 331 331 330 331 332 332 333 333 333 333 333 333 333 333 333 335 336 337 337 337 338 338 338 338 338 338 338 338 338 337 336 334 333 332 331 331
237 243 249 256 262 268 273 279 284 288 292 295 298 299 300 301 302 303 304 306 308 310 312 314 315 317 318 319 320 322 323 324 325 326 328 330 330 331 332 332 332 333 334 334 334 333 333 333 333 331 330 330 330 330 330 331 332 333 333 333 332 332 333 333 334 335 336 337 337 337 337 337 337 338 339 340 340 340 340 340 339 338 336 334 333 332 331
243 248 254 260 266 272 277 282 287 291 294 297 299 301 302 302 303 304 305 306 308 309 311 313 314 316 317 318 319 321 322 323 324 326 327 329 329 330 331 331 331 332 333 333 333 332 332 332 331 330 329 329 329 329 330 331 332 332 332 332 332 332 333 334 335 335 336 337 337 337 337 337 338 339 340 341 342 342 342 342 341 339 338 336 334 333 332
248 253 258 264 269 274 279 284 288 291 295 297 300 302 303 304 305 306 306 307 308 310 311 313 314 315 317 318 319 321 322 323 324 325 327 328 328 329 330 330 331 332 332 332 331 331 331 330 330 329 328 328 328 329 330 331 331 332 332 332 332 333 333 334 335 336 336 336 337 337 338 339 340 341 341 342 342 343 343 343 342 341 339 337 335 334 333
252 257 262 267 271 276 281 285 288 291 295 298 300 302 304 305 306 307 307 308 309 310 311 313 314 315 316 317 318 320 322 323 324 326 327 327 328 328 329 330 330 331 330 330 330 330 329 328 328 328 328 327 328 329 330 330 331 331 332 333 333 333 333 334 335 335 336 336 337 338 339 340 341 341 341 342 343 343 343 343 343 342 341 339 337 335 334
256 260 264 269 273 277 282 286 289 292 295 298 300 302 304 305 306 306 307 307 308 310 311 312 313 315 316 317 318 320 322 323 324 325 326 327 327 328 328 329 329 329 329 328 329 328 327 327 327 327 327 327 327 329 329 330 330 331 333 333 332 333 333 334 334 335 336 337 338 339 340 340 341 341 341 342 342 343 343 344 343 343 342 340 338 336 335
260 264 268 272 276 279 283 287 291 293 296 298 301 303 304 305 305 306 306 307 308 310 311 312 313 315 316 317 319 321 322 323 324 325 326 326 326 327 327 328 328 328 327 327 327 327 326 326 326 326 326 326 328 329 329 330 330 331 332 332 332 332 333 333 334 335 336 338 338 339 340 340 340 341 341 341 341 342 343 343 344 343 343 341 339 338 336
264 268 271 275 278 282 285 288 291 294 296 299 300 302 303 304 305 305 306 307 308 310 311 312 313 315 316 317 319 321 322 323 324 324 325 325 325 326 326 326 327 326 326 326 326 326 325 325 325 325 325 326 328 329 329 330 331 331 331 331 332 332 332 333 335 336 337 338 339 339 339 339 339 340 340 341 341 342 342 343 343 343 343 343 341 340 338
268 271 274 277 280 283 286 289 292 294 296 298 300 301 302 303 304 305 306 308 309 310 311 313 314 315 316 317 318 320 322 322 322 323 324 324 324 324 325 326 325 324 324 325 325 324 324 324 324 324 325 326 328 329 329 330 330 330 330 331 331 332 333 334 336 337 338 338 339 339 338 338 339 339 340 340 341 341 342 342 343 343 343 344 343 342 340
271 274 277 279 282 285 287 290 292 295 296 297 299 301 301 302 304 305 306 308 309 310 312 313 314 315 316 317 318 320 321 321 321 323 324 323 322 323 324 325 324 323 323 323 323 323 323 323 324 324 326 327 328 329 329 329 329 329 330 330 331 332 334 335 336 337 337 338 338 338 337 338 338 339 339 340 340 340 341 342 342 343 344 344 345 344 343
275 278 280 283 284 287 289 290 292 294 296 297 298 299 301 302 304 305 306 308 309 311 312 313 314 314 315 317 318 319 320 320 321 322 322 321 321 322 323 323 323 322 322 323 323 323 323 323 323 325 327 328 328 328 329 329 329 329 329 330 332 333 334 336 336 336 337 337 337 337 337 337 338 338 338 339 339 340 340 341 342 343 344 345 345 345 343
278 280 283 285 286 288 289 291 292 294 295 296 297 299 301 302 304 305 307 308 309 310 311 312 313 314 315 316 318 319 319 319 320 321 321 320 320 321 322 321 321 321 322 323 323 323 322 322 323 325 327 328 328 328 328 328 328 328 329 331 332 333 334 335 335 335 336 336 336 336 336 336 337 337 338 338 339 339 340 341 342 343 344 345 345 344 342
280 282 284 286 287 288 290 291 292 293 294 296 298 300 301 302 304 306 307 308 309 310 311 312 313 314 316 317 318 318 318 319 320 320 319 319 319 320 320 320 320 320 322 323 323 322 322 323 324 325 327 327 327 327 327 327 327 328 330 331 332 333 333 333 334 334 334 334 334 335 335 335 336 337 337 338 339 339 340 340 342 343 344 345 345 343 342
281 283 285 286 288 289 290 291 292 293 295 297 298 300 302 303 305 306 307 308 309 310 312 313 314 315 316 317 317 317 317 318 318 318 318 317 318 318 318 319 320 321 322 323 323 322 322 323 324 325 326 326 326 326 326 327 327 328 329 330 331 331 332 332 332 332 332 333 333 333 334 334 335 336 337 337 338 339 339 340 341 342 343 344 344 343 342
Height
5792 5791 5791 5790 5789 5788 5788 5787 5786 5785 5783 5782 5781 5780 5779 5778 5777 5776 5774 5773 5772 5771 5770 5768 5766 5765 5764 5763 5762 5760 5759 5758 5757 5756 5754 5753 5752 5751 5750 5748 5747 5745 5744 5742 5740 5738 5736 5735 5732 5731 5728 5726 5724 5721 5719 5716 5713 5711 5708 5704 5701 5698 5695 5692 5689 5687 5683 5680 5676 5672 5668 5665 5661 5657 5653 5649 5646 5641 5638 5634 5631 5628 5624 5618 5612 5608 5608
5792 5792 5791 5790 5789 5789 5788 5787 5786 5785 5784 5783 5782 5781 5780 5778 5777 5776 5775 5773 5772 5771 5770 5768 5767 5766 5764 5763 5762 5760 5759 5758 5757 5756 5755 5754 5752 5751 5750 5748 5747 5745 5743 5742 5740 5738 5736 5734 5732 5730 5727 5725 5722 5720 5717 5715 5712 5709 5706 5702 5699 5695 5691 5687 5684 5682 5680 5677 5673 5669 5665 5661 5657 5653 5649 5646 5642 5638 5634 5630 5626 5622 5619 5615 5608 5603 5603
5792 5792 5791 5790 5789 5789 5788 5787 5786 5785 5784 5783 5782 5781 5780 5779 5777 5776 5775 5774 5772 5771 5770 5768 5767 5766 5765 5763 5762 5761 5760 5758 5757 5756 5755 5754 5752 5751 5750 5748 5746 5745 5743 5741 5739 5737 5735 5733 5731 5729 5726 5724 5721 5719 5716 5713 5710 5707 5704 5700 5697 5694 5690 5685 5681 5677 5674 5671 5668 5664 5661 5657 5654 5650 5646 5642 5639 5634 5630 5626 5621 5617 5614 5612 5606 5599 5598
5792 5792 5791 5790 5790 5789 5788 5787 5787 5786 5785 5784 5783 5782 5780 5779 5778 5776 5775 5774 5773 5771 5770 5768 5767 5766 5765 5763 5762 5761 5760 5759 5757 5756 5755 5754 5752 5751 5749 5747 5746 5744 5742 5741 5739 5737 5735 5732 5730 5728 5725 5723 5720 5717 5714 5711 5708 5705 5702 5699 5695 5692 5689 5685 5680 5675 5671 5669 5665 5661 5657 5654 5650 5647 5643 5639 5635 5631 5626 5621 5617 5613 5608 5607 5603 5595 5592
5792 5792 5791 5790 5790 5789 5789 5788 5787 5786 5785 5784 5783 5782 5781 5779 5778 5777 5776 5774 5773 5771 5770 5768 5767 5766 5765 5763 5762 5761 5760 5759 5758 5756 5755 5754 5752 5751 5749 5747 5746 5744 5742 5740 5738 5736 5734 5731 5729 5727 5724 5721 5719 5716 5713 5709 5706 5703 5700 5696 5693 5690 5687 5683 5679 5675 5670 5666 5663 5659 5655 5651 5647 5643 5640 5636 5632 5627 5623 5618 5613 5609 5603 5600 5598 5592 5587
5792 5792 5791 5791 5790 5789 5789 5788 5788 5787 5786 5785 5783 5782 5781 5780 5779 5777 5776 5774 5773 5771 5770 5769 5768 5766 5765 5764 5763 5762 5760 5759 5758 5756 5755 5754 5752 5751 5749 5747 5745 5744 5742 5740 5738 5736 5733 5731 5728 5726 5723 5720 5717 5714 5711 5708 5704 5701 5697 5694 5690 5687 5685 5681 5678 5674 5668 5664 5661 5657 5653 5649 5645 5640 5636 5633 5629 5624 5620 5615 5610 5605 5599 5595 5593 5589 5584
5793 5792 5792 5791 5790 5790 5789 5789 5788 5787 5786 5785 5783 5782 5781 5780 5779 5778 5776 5775 5773 5772 5771 5769 5768 5767 5765 5764 5763 5762 5761 5759 5758 5756 5755 5754 5752 5751 5749 5747 5745 5743 5741 5739 5737 5735 5733 5730 5727 5725 5722 5719 5716 5713 5709 5706 5703 5699 5695 5692 5688 5685 5682 5678 5676 5672 5667 5661 5658 5654 5650 5646 5642 5638 5633 5630 5626 5621 5616 5611 5606 5601 5596 5591 5587 5584 5581
5793 5792 5792 5791 5790 5790 5789 5789 5788 5787 5786 5785 5783 5782 5782 5780 5779 5778 5777 5775 5774 5773 5771 5770 5769 5767 5766 5765 5764 5762 5761 5759 5758 5757 5755 5754 5752 5751 5749 5747 5745 5743 5741 5739 5737 5734 5732 5729 5726 5723 5721 5718 5714 5711 5708 5704 5701 5697 5693 5690 5686 5682 5678 5675 5672 5669 5665 5659 5655 5651 5647 5643 5639 5635 5630 5626 5623 5619 5613 5608 5603 5597 5592 5588 5583 5579 5577
5793 5792 5792 5791 5791 5790 5790 5789 5788 5787 5786 5785 5784 5783 5782 5781 5780 5779 5777 5776 5775 5773 5772 5770 5769 5768 5767 5765 5764 5763 5761 5760 5758 5757 5755 5754 5752 5750 5749 5747 5745 5743 5741 5739 5736 5734 5731 5728 5725 5723 5720 5717 5713 5710 5706 5703 5699 5695 5691 5687 5683 5679 5675 5672 5668 5666 5662 5657 5653 5648 5644 5639 5635 5631 5627 5623 5619 5616 5611 5605 5599 5594 5588 5584 5580 5575 5571
5793 5792 5792 5791 5791 5791 5790 5789 5788 5788 5786 5785 5784 5784 5783 5782 5780 5779 5778 5777 5775 5774 5773 5771 5770 5769 5767 5766 5765 5763 5762 5760 5759 5757 5756 5754 5752 5750 5749 5747 5745 5743 5740 5738 5736 5733 5731 5728 5725 5722 5719 5716 5712 5709 5705 5701 5698 5694 5690 5685 5682 5677 5673 5669 5665 5662 5659 5654 5650 5646 5641 5636 5632 5627 5624 5620 5615 5612 5608 5603 5596 5591 5585 5580 5576 5572 5567
5793 5793 5792 5792 5792 5791 5790 5790 5789 5788 5787 5786 5785 5784 5783 5783 5781 5780 5779 5778 5776 5775 5773 5772 5771 5770 5768 5767 5765 5764 5762 5761 5759 5758 5756 5754 5752 5751 5749 5747 5745 5743 5740 5738 5735 5733 5730 5727 5724 5721 5718 5715 5711 5708 5704 5700 5696 5692 5688 5684 5680 5676 5671 5666 5662 5658 5655 5651 5647 5644 5639 5633 5628 5624 5620 5616 5611 5608 5605 5600 5594 5587 5581 5576 5572 5567 5562
5793 5793 5793 5792 5792 5792 5791 5790 5789 5788 5787 5787 5786 5785 5784 5784 5782 5781 5780 5779 5777 5776 5774 5773 5772 5770 5769 5767 5766 5764 5763 5761 5760 5758 5756 5755 5753 5751 5749 5747 5745 5742 5740 5737 5735 5732 5730 5727 5724 5721 5718 5714 5711 5707 5703 5699 5695 5691 5687 5682 5678 5674 5669 5665 5660 5655 5651 5648 5643 5640 5637 5631 5624 5620 5616 5612 5607 5603 5600 5598 5592 5583 5577 5572 5568 5563 5558
5794 5794 5794 5793 5793 5792 5792 5791 5790 5789 5788 5788 5787 5786 5785 5785 5783 5782 5781 5780 5778 5777 5776 5774 5773 5771 5770 5768 5767 5765 5764 5762 5760 5759 5757 5755 5753 5751 5749 5747 5744 5742 5740 5737 5734 5732 5729 5726 5723 5720 5717 5714 5710 5706 5702 5698 5693 5690 5685 5681 5676 5672 5667 5663 5658 5652 5648 5644 5640 5635 5633 5630 5623 5618 5614 5608 5604 5598 5595 5594 5590 5581 5573 5568 5563 5559 5554
5795 5795 5794 5794 5794 5793 5793 5792 5791 5790 5789 5789 5788 5787 5786 5785 5784 5783 5782 5781 5779 5778 5776 5775 5774 5772 5771 5769 5768 5766 5764 5763 5761 5759 5757 5755 5753 5751 5749 5747 5744 5742 5739 5737 5734 5731 5729 5726 5723 5720 5717 5713 5709 5705 5701 5697 5692 5688 5684 5679 5674 5670 5666 5660 5655 5650 5645 5641 5637 5632 5629 5625 5620 5615 5610 5605 5600 5594 5589 5588 5586 5578 5570 5564 5559 5554 5549
5795 5795 5795 5795 5795 5794 5793 5793 5792 5791 5790 5790 5789 5788 5787 5786 5785 5784 5783 5782 5780 5779 5777 5776 5775 5773 5771 5770 5768 5767 5765 5763 5761 5759 5757 5755 5753 5751 5749 5747 5744 5742 5739 5736 5734 5731 5728 5725 5722 5718 5715 5711 5707 5703 5700 5696 5691 5687 5682 5678 5673 5668 5664 5658 5653 5648 5642 5637 5633 5628 5623 5620 5615 5610 5605 5600 5596 5591 5584 5581 5580 5574 5567 5561 5555 5550 5545
5796 5796 5796 5796 5795 5795 5794 5793 5793 5792 5791 5791 5790 5789 5788 5787 5786 5785 5784 5783 5781 5780 5779 5777 5775 5774 5772 5771 5769 5767 5765 5764 5762 5760 5758 5756 5754 5752 5749 5747 5744 5742 5739 5736 5733 5730 5727 5724 5720 5716 5712 5709 5705 5701 5697 5694 5690 5685 5681 5676 5671 5666 5661 5656 5651 5646 5640 5634 5630 5625 5620 5615 5611 5606 5601 5596 5591 5587 5581 5576 5573 5569 5563 5557 5552 5546 5540
5797 5797 5797 5796 5796 5795 5795 5794 5793 5793 5792 5792 5790 5790 5789 5788 5787 5786 5785 5783 5782 5781 5779 5778 5776 5775 5773 5771 5769 5768 5766 5764 5762 5760 5758 5756 5754 5752 5749 5747 5744 5741 5739 5736 5733 5729 5726 5723 5719 5715 5711 5708 5704 5699 5695 5691 5687 5683 5678 5674 5669 5664 5659 5654 5649 5644 5638 5632 5627 5624 5619 5613 5607 5602 5597 5592 5588 5583 5577 5571 5567 5563 5558 5552 5546 5541 5535
5797 5797 5797 5797 5796 5796 5795 5795 5794 5793 5793 5792 5791 5790 5790 5789 5788 5787 5786 5784 5783 5782 5780 5779 5777 5775 5774 5772 5770 5768 5766 5764 5762 5760 5758 5756 5754 5752 5749 5747 5744 5741 5738 5735 5732 5729 5725 5722 5718 5715 5711 5707 5703 5698 5693 5688 5684 5680 5676 5671 5667 5662 5658 5653 5647 5642 5637 5630 5624 5620 5617 5611 5605 5599 5594 5588 5584 5579 5573 5567 5562 5558 5552 5547 5542 5536 5531
5798 5798 5798 5797 5797 5796 5796 5795 5795 5794 5793 5793 5792 5791 5790 5790 5789 5788 5786 5785 5784 5782 5781 5779 5778 5776 5774 5772 5770 5768 5766 5764 5762 5760 5758 5756 5754 5751 5749 5746 5743 5740 5737 5734 5731 5728 5724 5720 5717 5713 5709 5705 5701 5697 5692 5687 5682 5678 5674 5669 5664 5660 5656 5651 5645 5639 5635 5629 5622 5616 5613 5608 5603 5597 5591 5586 5580 5574 5569 5564 5559 5553 5547 5542 5537 5532 5526
5798 5798 5798 5798 5797 5797 5796 5796 5795 5795 5794 5794 5793 5792 5791 5790 5789 5788 5787 5786 5784 5783 5781 5780 5778 5776 5774 5772 5771 5769 5767 5765 5763 5760 5758 5756 5753 5751 5748 5746 5743 5740 5737 5734 5730 5727 5723 5719 5715 5711 5707 5703 5698 5695 5691 5687 5682 5676 5671 5667 5662 5657 5653 5649 5643 5637 5632 5627 5620 5613 5607 5603 5599 5593 5588 5582 5577 5571 5565 5560 5555 5549 5543 5537 5532 5527 5521
5798 5798 5798 5798 5797 5797 5797 5796 5796 5795 5794 5794 5793 5792 5792 5791 5790 5789 5788 5786 5785 5783 5781 5780 5778 5776 5774 5773 5771 5769 5767 5765 5763 5760 5758 5755 5753 5750 5747 5744 5742 5739 5735 5732 5729 5725 5721 5718 5713 5709 5705 5701 5696 5692 5688 5685 5680 5675 5669 5665 5660 5655 5650 5646 5640 5635 5629 5624 5618 5613 5606 5600 5595 5590 5584 5579 5573 5567 5561 5556 5551 5545 5539 5533 5528 5522 5516
5799 5798 5798 5798 5797 5797 5797 5796 5796 5795 5795 5794 5793 5793 5792 5791 5790 5789 5788 5786 5785 5784 5782 5780 5778 5776 5775 5773 5771 5769 5767 5765 5762 5760 5757 5755 5752 5749 5746 5743 5740 5737 5734 5730 5727 5723 5719 5716 5712 5707 5703 5699 5694 5690 5685 5681 5677 5673 5668 5662 5658 5653 5648 5644 5639 5633 5628 5623 5617 5612 5606 5598 5592 5588 5583 5577 5570 5564 5557 5551 5546 5541 5535 5529 5523 5518 5512
5799 5798 5798 5798 5798 5797 5797 5797 5796 5796 5795 5794 5794 5793 5792 5791 5790 5789 5788 5786 5785 5784 5782 5780 5778 5776 5775 5773 5771 5769 5766 5764 5762 5759 5757 5754 5751 5748 5745 5742 5739 5736 5732 5729 5725 5721 5717 5714 5710 5705 5701 5697 5692 5688 5683 5678 5674 5670 5666 5660 5656 5651 5645 5641 5637 5632 5627 5622 5615 5610 5604 5597 5589 5583 5578 5573 5567 5561 5554 5547 5542 5536 5530 5524 5519 5513 5507
5799 5798 5798 5798 5798 5797 5797 5797 5796 5795 5795 5794 5794 5793 5792 5791 5790 5789 5787 5786 5785 5783 5782 5780 5778 5776 5774 5773 5770 5768 5766 5764 5761 5759 5756 5753 5750 5747 5744 5741 5737 5734 5731 5727 5723 5719 5715 5712 5708 5703 5699 5695 5690 5685 5681 5676 5671 5667 5663 5658 5653 5648 5643 5638 5634 5628 5623 5618 5612 5607 5602 5595 5587 5580 5574 5568 5563 5557 5550 5544 5538 5532 5527 5521 5514 5509 5503
5798 5798 5798 5798 5798 5797 5797 5796 5796 5795 5795 5794 5794 5793 5792 5791 5790 5789 5787 5786 5785 5783 5781 5780 5778 5776 5774 5772 5770 5767 5765 5763 5760 5758 5755 5752 5749 5746 5743 5739 5736 5732 5729 5725 5721 5717 5713 5709 5705 5701 5697 5692 5688 5683 5678 5673 5668 5663 5660 5655 5650 5645 5640 5634 5630 5626 5619 5614 5608 5603 5599 5593 5584 5577 5571 5565 5559 5554 5548 5541 5535 5529 5523 5517 5511 5504 5498
5798 5798 5798 5798 5797 5797 5797 5796 5796 5795 5795 5794 5794 5793 5792 5791 5789 5788 5787 5786 5784 5783 5781 5779 5777 5775 5773 5771 5769 5766 5764 5762 5759 5756 5754 5751 5748 5744 5741 5738 5734 5730 5727 5723 5719 5715 5711 5707 5702 5698 5694 5690 5685 5680 5675 5671 5665 5660 5656 5652 5646 5641 5636 5630 5626 5622 5617 5610 5604 5599 5595 5591 5584 5576 5568 5562 5556 5550 5545 5538 5531 5525 5519 5513 5507 5501 5494
5798 5798 5798 5798 5797 5797 5796 5796 5796 5795 5794 5794 5793 5792 5791 5790 5789 5788 5787 5786 5784 5782 5780 5779 5777 5775 5773 5770 5768 5765 5763 5761 5758 5755 5752 5749 5746 5743 5739 5736 5732 5728 5725 5721 5717 5712 5708 5704 5700 5696 5692 5687 5683 5678 5673 5668 5663 5656 5652 5648 5643 5637 5632 5626 5620 5616 5612 5606 5600 5594 5588 5585 5580 5573 5566 5559 5552 5546 5541 5535 5528 5522 5515 5509 5503 5497 5490
5798 5798 5798 5798 5797 5797 5796 5796 5795 5795 5794 5794 5793 5792 5791 5790 5789 5788 5786 5785 5783 5782 5780 5778 5776 5774 5772 5769 5767 5765 5762 5759 5757 5754 5750 5747 5744 5741 5737 5734 5730 5726 5722 5718 5714 5710 5706 5702 5697 5693 5689 5684 5680 5675 5670 5665 5661 5654 5648 5644 5639 5633 5628 5622 5616 5611 5606 5601 5597 5590 5583 5578 5573 5568 5562 5555 5548 5542 5536 5530 5524 5518 5511 5505 5498 5492 5486
5798 5798 5797 5797 5797 5797 5796 5795 5795 5794 5794 5793 5793 5792 5791 5790 5788 5787 5786 5784 5782 5781 5779 5777 5775 5773 5770 5768 5766 5763 5761 5758 5755 5752 5749 5746 5742 5739 5735 5732 5728 5724 5720 5716 5712 5708 5703 5699 5694 5690 5685 5681 5677 5673 5667 5662 5658 5652 5645 5640 5635 5630 5625 5619 5613 5608 5603 5597 5592 5587 5581 5574 5568 5563 5557 5550 5543 5538 5532 5526 5519 5513 5506 5500 5494 5488 5482
5797 5797 5797 5797 5796 5796 5796 5795 5795 5794 5794 5793 5792 5791 5790 5789 5788 5786 5785 5783 5782 5780 5778 5776 5774 5771 5769 5767 5764 5762 5759 5756 5753 5750 5747 5744 5740 5737 5733 5729 5725 5721 5717 5713 5709 5705 5700 5696 5692 5687 5682 5677 5673 5669 5664 5659 5655 5650 5643 5637 5631 5626 5622 5616 5610 5604 5599 5594 5588 5583 5576 5570 5564 5558 5552 5545 5538 5532 5527 5520 5514 5508 5502 5495 5489 5483 5477
5796 5796 5796 5796 5796 5796 5795 5795 5794 5794 5793 5792 5792 5790 5790 5788 5787 5785 5784 5782 5780 5779 5777 5775 5772 5770 5768 5765 5763 5760 5757 5754 5751 5748 5745 5742 5738 5734 5731 5727 5723 5719 5715 5710 5706 5702 5697 5693 5689 5684 5679 5674 5669 5665 5660 5655 5651 5647 5641 5634 5628 5623 5618 5613 5607 5600 5594 5589 5584 5580 5574 5566 5559 5553 5548 5541 5534 5528 5522 5516 5510 5504 5497 5491 5484 5478 5472
5795 5796 5796 5796 5795 5795 5795 5794 5794 5793 5792 5792 5791 5789 5788 5787 5786 5784 5783 5781 5779 5777 5775 5773 5771 5768 5766 5764 5761 5758 5755 5752 5749 5745 5742 5739 5735 5732 5728 5724 5720 5716 5712 5707 5703 5699 5694 5690 5685 5680 5676 5671 5666 5662 5657 5651 5646 5642 5637 5631 5625 5620 5614 5609 5603 5597 5591 5584 5578 5574 5570 5564 5556 5549 5542 5537 5530 5524 5518 5512 5505 5499 5493 5487 5480 5474 5468
5794 5795 5795 5795 5795 5794 5794 5793 5793 5792 5791 5790 5789 5788 5787 5786 5784 5783 5781 5779 5777 5776 5773 5771 5769 5766 5764 5761 5758 5756 5753 5750 5747 5743 5739 5736 5733 5729 5725 5721 5717 5713 5709 5704 5699 5695 5691 5686 5682 5677 5672 5667 5663 5658 5654 5648 5642 5637 5633 5627 5621 5616 5611 5605 5599 5594 5588 5581 5573 5567 5562 5558 5552 5545 5538 5532 5526 5519 5513 5507 5501 5495 5489 5482 5476 5469 5463
5793 5794 5794 5794 5794 5793 5793 5792 5792 5791 5790 5789 5788 5787 5785 5784 5782 5781 5779 5777 5776 5774 5771 5769 5767 5764 5762 5759 5756 5753 5751 5747 5744 5741 5737 5734 5730 5726 5722 5719 5714 5710 5706 5701 5696 5691 5687 5683 5678 5673 5668 5663 5658 5654 5649 5645 5639 5633 5628 5623 5617 5612 5608 5602 5596 5591 5585 5579 5571 5564 5557 5552 5547 5541 5534 5527 5521 5515 5509 5503 5496 5490 5484 5478 5471 5465 5459
5792 5792 5793 5793 5792 5792 5792 5791 5790 5789 5788 5787 5786 5785 5784 5782 5781 5779 5777 5775 5773 5771 5769 5767 5765 5762 5760 5757 5754 5751 5748 5745 5741 5738 5734 5730 5727 5723 5719 5715 5711 5707 5703 5698 5693 5688 5683 5679 5674 5669 5664 5659 5654 5649 5644 5640 5635 5629 5624 5618 5613 5607 5603 5598 5593 5587 5582 5575 5568 5561 5554 5548 5542 5536 5530 5523 5516 5510 5504 5498 5492 5486 5480 5473 5466 5460 5454
5791 5791 5791 5791 5791 5790 5790 5789 5788 5788 5787 5785 5784 5783 5782 5780 5778 5777 5775 5773 5771 5769 5767 5764 5762 5759 5757 5754 5751 5748 5745 5741 5738 5734 5731 5727 5723 5720 5716 5712 5708 5704 5700 5695 5689 5684 5680 5675 5670 5664 5659 5654 5649 5644 5639 5635 5630 5625 5620 5614 5608 5602 5597 5591 5586 5581 5577 5571 5564 5557 5551 5544 5538 5531 5525 5519 5512 5505 5499 5493 5486 5480 5475 5468 5462 5455 5449
5790 5790 5789 5789 5789 5789 5788 5787 5786 5786 5785 5783 5782 5781 5779 5778 5776 5774 5773 5771 5769 5766 5764 5761 5759 5756 5753 5750 5747 5744 5741 5737 5734 5731 5727 5723 5719 5715 5711 5707 5703 5699 5696 5691 5686 5681 5676 5671 5666 5661 5655 5650 5645 5640 5634 5630 5625 5620 5615 5609 5603 5597 5591 5585 5579 5573 5570 5567 5561 5554 5548 5542 5535 5527 5521 5515 5508 5501 5494 5488 5481 5475 5469 5463 5456 5450 5444
5788 5788 5788 5787 5787 5787 5786 5785 5784 5783 5782 5781 5780 5778 5777 5775 5774 5772 5770 5768 5766 5763 5761 5759 5756 5753 5750 5747 5744 5740 5737 5733 5730 5727 5723 5719 5715 5711 5707 5703 5698 5694 5690 5686 5681 5676 5672 5667 5662 5657 5651 5646 5640 5635 5630 5625 5620 5615 5609 5603 5597 5592 5586 5580 5573 5567 5562 5558 5554 5548 5542 5536 5531 5524 5517 5510 5504 5497 5489 5483 5477 5470 5463 5457 5451 5445 5438
5786 5786 5786 5785 5785 5784 5784 5783 5782 5781 5780 5779 5777 5776 5774 5773 5771 5769 5767 5765 5763 5760 5758 5755 5753 5750 5747 5744 5741 5737 5733 5730 5726 5723 5719 5714 5710 5706 5702 5698 5693 5689 5685 5681 5676 5672 5667 5662 5658 5652 5647 5642 5636 5631 5626 5621 5615 5610 5604 5598 5592 5586 5581 5575 5569 5563 5557 5551 5545 5539 5533 5527 5522 5518 5512 5505 5499 5492 5485 5478 5471 5465 5458 5452 5445 5439 5433
5784 5784 5784 5783 5783 5782 5781 5780 5780 5779 5777 5776 5774 5773 5771 5769 5768 5766 5764 5762 5760 5757 5755 5752 5749 5746 5743 5740 5737 5734 5730 5726 5722 5719 5715 5710 5705 5701 5697 5693 5688 5684 5680 5676 5671 5666 5661 5657 5652 5647 5642 5637 5632 5626 5621 5616 5611 5605 5599 5593 5587 5582 5577 5571 5565 5559 5553 5548 5541 5535 5528 5522 5516 5510 5505 5499 5493 5487 5481 5474 5466 5460 5453 5446 5440 5433 5427
5782 5782 5781 5781 5780 5780 5779 5778 5777 5776 5774 5773 5771 5770 5768 5766 5764 5762 5760 5758 5756 5754 5751 5748 5746 5743 5739 5736 5733 5729 5726 5722 5718 5714 5710 5706 5702 5697 5693 5688 5683 5679 5674 5670 5666 5661 5656 5652 5647 5642 5636 5631 5627 5622 5617 5612 5607 5601 5595 5589 5584 5578 5573 5568 5562 5555 5549 5544 5539 5532 5526 5519 5513 5506 5500 5494 5488 5482 5476 5469 5462 5455 5448 5441 5434 5428 5422
5780 5779 5779 5778 5778 5777 5776 5775 5774 5773 5771 5770 5768 5767 5765 5763 5761 5758 5756 5754 5752 5749 5747 5744 5741 5738 5735 5732 5728 5725 5721 5717 5713 5709 5705 5701 5697 5692 5688 5683 5678 5674 5669 5665 5660 5655 5650 5646 5642 5637 5631 5626 5621 5616 5612 5607 5602 5597 5591 5585 5579 5574 5569 5563 5558 5552 5545 5539 5534 5529 5523 5516 5510 5503 5497 5491 5485 5478 5471 5465 5458 5451 5443 5436 5429 5422 5416
5777 5777 5776 5776 5775 5774 5773 5772 5771 5770 5768 5767 5765 5763 5761 5759 5757 5755 5752 5750 5747 5745 5742 5739 5736 5733 5730 5727 5723 5720 5716 5712 5708 5704 5700 5695 5691 5686 5682 5678 5674 5669 5664 5660 5655 5650 5645 5641 5637 5632 5626 5621 5616 5611 5606 5602 5597 5593 5587 5581 5574 5569 5564 5558 5553 5548 5542 5535 5530 5525 5519 5513 5507 5500 5494 5488 5482 5475 5468 5461 5454 5447 5439 5431 5424 5417 5411
5775 5774 5774 5773 5772 5771 5771 5769 5768 5767 5765 5763 5761 5760 5758 5756 5753 5751 5749 5746 5743 5740 5738 5735 5732 5728 5725 5722 5718 5715 5711 5708 5704 5699 5695 5690 5685 5681 5676 5672 5668 5664 5659 5654 5650 5646 5640 5635 5631 5626 5621 5616 5611 5606 5601 5596 5591 5588 5584 5578 5571 5564 5559 5554 5548 5544 5539 5533 5527 5521 5515 5509 5504 5497 5490 5484 5478 5472 5465 5458 5450 5443 5435 5427 5419 5412 5406
5772 5772 5771 5770 5769 5768 5768 5766 5764 5763 5761 5760 5758 5756 5754 5752 5749 5747 5744 5742 5739 5736 5733 5730 5727 5724 5720 5716 5713 5710 5706 5702 5698 5694 5689 5685 5681 5676 5671 5667 5662 5658 5654 5649 5645 5640 5634 5629 5624 5620 5615 5611 5606 5601 5596 5591 5585 5581 5577 5573 5567 5561 5555 5550 5545 5540 5535 5529 5523 5518 5512 5506 5500 5494 5487 5480 5474 5467 5461 5454 5446 5439 5431 5423 5415 5408 5402
5769 5769 5768 5767 5766 5765 5764 5763 5761 5759 5757 5756 5754 5752 5750 5747 5745 5742 5740 5737 5734 5731 5728 5725 5722 5719 5715 5711 5708 5705 5701 5696 5692 5689 5684 5679 5675 5671 5667 5662 5657 5652 5648 5644 5639 5634 5629 5624 5619 5614 5609 5605 5601 5596 5591 5586 5580 5575 5570 5566 5562 5556 5551 5546 5540 5535 5530 5525 5519 5513 5508 5502 5496 5490 5484 5477 5470 5463 5457 5450 5442 5435 5427 5419 5411 5404 5398
5766 5765 5765 5764 5763 5762 5761 5759 5757 5755 5753 5751 5749 5747 5745 5743 5740 5737 5735 5732 5729 5726 5723 5720 5717 5714 5710 5706 5703 5700 5696 5691 5687 5683 5679 5674 5669 5665 5662 5657 5652 5646 5641 5637 5633 5628 5623 5619 5614 5609 5604 5600 5595 5591 5586 5581 5576 5571 5565 5560 5556 5551 5546 5541 5536 5531 5526 5521 5515 5509 5504 5498 5492 5486 5480 5473 5466 5459 5452 5446 5438 5431 5423 5415 5408 5401 5394
5763 5762 5761 5760 5759 5758 5757 5755 5753 5751 5749 5746 5745 5743 5740 5738 5735 5733 5730 5727 5724 5721 5718 5715 5712 5708 5705 5701 5698 5694 5690 5685 5681 5678 5674 5668 5664 5660 5656 5652 5647 5641 5636 5631 5627 5622 5617 5613 5609 5604 5600 5594 5590 5585 5581 5576 5571 5566 5561 5556 5551 5546 5541 5537 5531 5526 5521 5516 5511 5505 5500 5494 5488 5482 5475 5469 5462 5455 5448 5441 5434 5427 5419 5412 5404 5397 5391
5759 5758 5757 5756 5755 5754 5753 5751 5749 5747 5744 5742 5740 5738 5735 5733 5730 5728 5725 5722 5719 5716 5713 5710 5707 5703 5699 5696 5692 5689 5685 5680 5676 5673 5668 5663 5658 5654 5650 5646 5641 5636 5631 5625 5621 5616 5611 5606 5603 5599 5595 5590 5585 5580 5575 5571 5565 5560 5555 5551 5546 5541 5536 5532 5527 5522 5516 5511 5506 5501 5495 5489 5483 5477 5470 5464 5457 5450 5443 5437 5430 5422 5415 5407 5400 5394 5388
5756 5755 5753 5752 5751 5750 5748 5747 5745 5743 5740 5737 5735 5733 5731 5728 5725 5723 5720 5717 5714 5711 5708 5705 5701 5698 5694 5690 5687 5683 5679 5675 5671 5667 5662 5657 5653 5649 5645 5640 5635 5631 5626 5621 5615 5609 5604 5600 5596 5593 5590 5586 5580 5575 5570 5565 5560 5556 5551 5546 5541 5536 5531 5527 5522 5517 5512 5506 5501 5496 5490 5484 5478 5472 5465 5459 5453 5446 5439 5432 5425 5418 5411 5403 5397 5390 5384
5752 5751 5749 5748 5746 5745 5743 5742 5740 5738 5736 5733 5730 5728 5726 5723 5721 5718 5715 5712 5709 5706 5702 5699 5695 5692 5688 5684 5681 5677 5673 5669 5666 5661 5656 5651 5647 5643 5639 5635 5630 5626 5622 5617 5611 5605 5599 5594 5590 5586 5584 5581 5576 5571 5566 5561 5555 5551 5546 5541 5537 5532 5527 5522 5517 5512 5507 5501 5496 5490 5484 5478 5472 5466 5460 5453 5447 5441 5434 5427 5420 5413 5406 5400 5393 5387 5381
5748 5747 5745 5743 5742 5740 5739 5737 5735 5733 5731 5728 5726 5723 5721 5718 5715 5712 5709 5706 5703 5700 5696 5693 5690 5686 5681 5678 5674 5670 5666 5663 5660 5656 5651 5646 5641 5637 5634 5630 5625 5620 5616 5612 5607 5602 5596 5591 5585 5581 5577 5574 5570 5566 5562 5557 5551 5546 5541 5537 5532 5528 5523 5518 5513 5508 5503 5497 5491 5485 5479 5473 5467 5461 5454 5448 5442 5436 5429 5422 5415 5409 5402 5396 5390 5383 5378